TimeEST,TemperatureF,Dew PointF,Humidity,Sea Level PressureIn,VisibilityMPH,Wind Direction,Wind SpeedMPH,Gust SpeedMPH,PrecipitationIn,Events,Conditions,WindDirDegrees,DateUTC
12:05 AM,33.8,32.0,93,29.52,7.0,Calm,Calm,-,N/A,,Overcast,0,2013-03-01 05:05:00
12:29 AM,33.8,33.8,100,29.53,6.0,Calm,Calm,-,N/A,,Overcast,0,2013-03-01 05:29:00
12:37 AM,33.8,33.8,100,29.53,6.0,Calm,Calm,-,N/A,,Overcast,0,2013-03-01 05:37:00
12:46 AM,33.8,33.8,100,29.53,7.0,Calm,Calm,-,N/A,,Overcast,0,2013-03-01 05:46:00
12:53 AM,34.0,33.1,96,29.53,7.0,Calm,Calm,-,N/A,,Overcast,0,2013-03-01 05:53:00
1:53 AM,34.0,33.1,96,29.53,9.0,Calm,Calm,-,N/A,,Overcast,0,2013-03-01 06:53:00
2:14 AM,35.6,33.8,93,29.52,10.0,North,3.5,-,N/A,,Overcast,360,2013-03-01 07:14:00
2:33 AM,35.6,35.6,100,29.53,10.0,NNW,4.6,-,N/A,,Overcast,340,2013-03-01 07:33:00
2:50 AM,37.4,35.6,93,29.53,10.0,Calm,Calm,-,N/A,,Overcast,0,2013-03-01 07:50:00
2:53 AM,37.0,35.1,93,29.53,10.0,NNW,3.5,-,N/A,,Overcast,340,2013-03-01 07:53:00
3:11 AM,37.4,35.6,93,29.53,10.0,Calm,Calm,-,N/A,,Overcast,0,2013-03-01 08:11:00
3:32 AM,37.4,35.6,93,29.53,10.0,Calm,Calm,-,N/A,,Overcast,0,2013-03-01 08:32:00
3:53 AM,37.0,34.0,89,29.54,10.0,Calm,Calm,-,N/A,,Overcast,0,2013-03-01 08:53:00
4:53 AM,37.0,34.0,89,29.55,10.0,Calm,Calm,-,N/A,,Overcast,0,2013-03-01 09:53:00
5:53 AM,36.0,32.0,86,29.56,10.0,Calm,Calm,-,N/A,,Overcast,0,2013-03-01 10:53:00
7:53 AM,37.0,34.0,89,29.60,10.0,WNW,4.6,-,N/A,,Partly Cloudy,300,2013-03-01 12:53:00
8:53 AM,39.9,30.0,68,29.61,10.0,NNW,6.9,-,N/A,,Mostly Cloudy,330,2013-03-01 13:53:00
9:53 AM,41.0,28.0,60,29.61,10.0,North,11.5,18.4,N/A,,Overcast,360,2013-03-01 14:53:00
10:53 AM,42.1,27.0,55,29.62,10.0,NNW,6.9,-,N/A,,Overcast,330,2013-03-01 15:53:00
12:53 PM,42.1,26.1,53,29.61,10.0,NNW,10.4,-,N/A,,Overcast,340,2013-03-01 17:53:00
1:53 PM,42.1,26.1,53,29.61,10.0,NNW,11.5,16.1,N/A,,Overcast,330,2013-03-01 18:53:00
2:53 PM,42.1,26.1,53,29.62,10.0,North,8.1,-,N/A,,Overcast,350,2013-03-01 19:53:00
3:53 PM,41.0,26.1,55,29.63,10.0,NNW,9.2,-,N/A,,Overcast,330,2013-03-01 20:53:00
4:53 PM,39.9,25.0,55,29.65,10.0,NW,5.8,-,N/A,,Overcast,320,2013-03-01 21:53:00
5:53 PM,39.0,25.0,57,29.66,10.0,Calm,Calm,-,N/A,,Overcast,0,2013-03-01 22:53:00
6:53 PM,39.0,26.1,60,29.67,10.0,Calm,Calm,-,N/A,,Overcast,0,2013-03-01 23:53:00
7:53 PM,37.9,27.0,65,29.67,10.0,NNW,3.5,-,N/A,,Overcast,330,2013-03-02 00:53:00
8:53 PM,37.9,26.1,62,29.68,10.0,NNW,5.8,-,N/A,,Overcast,330,2013-03-02 01:53:00
9:53 PM,37.9,26.1,62,29.68,10.0,NW,5.8,-,N/A,,Overcast,320,2013-03-02 02:53:00
10:53 PM,37.0,26.1,65,29.68,10.0,NW,5.8,-,N/A,,Overcast,320,2013-03-02 03:53:00
11:53 PM,37.0,26.1,65,29.67,10.0,NNW,6.9,-,N/A,,Overcast,330,2013-03-02 04:53:00